STARLINK-32433, 61852

Orbit data source: Space-Track

STARLINK-32433, 61852 is a payload satellite owned by SpaceX/Seattle (US) in LEO that was launched on Thu, 07 Nov 2024 UTC via an FALCON 9 launch vehicle from the Air Force Eastern Test Range (AFETR). Payloads include a variety of satellites, spacecraft, and rockets equipped with specific instruments for various scientific and technological missions. These include communications satellites like Starlink; space stations such as the ISS; scientific satellites like the Hubble; Earth observation satellites from companies like Planet Labs, Umbra, and HawkEye 360; GPS; miniature CubeSats for education and research; and military/defense satellites.

Loading next visibility...
STARLINK-32433 details
Identifier
61852, 2024-202H
Orbit
LEO
Last TLE update8 hours ago
Origin
Flag of USSpaceX/Seattle (US)
ManufacturerSpaceX/Seattle
MissionOperational spacecraft
Bus & MotorSTARLINK V2M, Unknown motor
Mass730 kg wet, ~700 kg dry
Launch date (UTC)
2024-11-07 (2 months ago)
Launch vehicle
FALCON 9
Launch site
Air Force Eastern Test Range (AFETR)
Object type
Payload
Rocket body
Debris
Shape & HBRUnknown
Radar Cross SectionLarge (>1 m²)

Expand to show TLE details & history

TLE from 8 hours ago
0 STARLINK-32433
1 61852U 24202H   24361.59288293 -.00001957  00000-0 -39559-4 0  9993
2 61852  42.9998 201.0221 0002367 269.7425  90.3160 15.40711921  8239
Epoch: 2024-12-26T14:13Z
Definitive object data (Epoch: 2024-12-26T14:13:45.085Z)
Latitude-0.00002°
Longitude-107.98583°
Altitude443.79 km
Speed7.648 km/s
True Right ascension13h 24m 05s
True Declination0° 00' 00"
Sunlit
Object was in daylight at TLE epoch
Visualization TLE readout
Latitude-22.78922°
Longitude-136.43695°
Altitude448.421 km
Speed7.644 km/s
Apparent Right ascension10h 31m 11s
Apparent Declination-32° 00' 46"
Sunlit
Object is in daylight
Visualization observer readout
Local Sidereal Time21:14:38
Azimuth291.135° WNW
Elevation-72.664°
Doppler factor1
Orbital elements
Apogee altitude447.579 km
Perigee altitude444.348 km
Semi-major axis6,824.1 km
Eccentricity0.0002367
Inclination42.9998°
RAAN201.0221°
Arg. of periapsis269.7425°
True anomaly90.34312°
Mean anomaly90.316°
Eccentric anomaly90.32956°
Mean motion3.85013 °/min
BSTAR-0.000039559
Orbital period93.5 mins
Loading maneuver chart data...
Loading historical data...
Loading historical data...
Loading historical data...
Loading historical data...
Loading historical data...
Loading historical data...
Loading historical data...

STARLINK-32433 Visibility forecast

Observer location: undefined°, undefined

Span
Click to sort rows by Start time (UTC) header in descending order
Start Az.
Max El. time (UTC)
Max El. Az.
Max El.
End time (UTC)
End Az.
6 mins2024-12-26 22:28:35.282Z277.239° WNW2024-12-26 22:31:35.282Z198.249° SSW34.571°2024-12-26 22:34:35.282Z135.207° SSE
5 mins2024-12-27 16:54:35.282Z217.794° SW2024-12-27 16:56:35.282Z153.971° SSE35.687°2024-12-27 16:59:35.282Z81.219° E
5 mins2024-12-27 18:32:35.282Z276.296° WNW2024-12-27 18:34:35.282Z344.374° N40.379°2024-12-27 18:37:35.282Z68.806° E
5 mins2024-12-27 20:10:35.282Z293.852° NW2024-12-27 20:12:35.282Z338.73° N37.834°2024-12-27 20:15:35.282Z83.381° E
|